Location: West Chester
(39.9610°N, 75.6060°W)
Time: 20:04:46
(UTC-04:00)

ARIANE 6 FM1 Upper Stage - Pass Details

Date: 24 September 2024
Orbit: 563 x 594 km, 62.0° (Epoch: 11 October)

Event Time Altitude Azimuth Distance (km) Brightness Sun altitude
Rises 20:56:37 0° 260° (W) 2,780 7.2 -23.7°
Reaches altitude 10° 20:59:33 10° 282° (WNW) 1,892 6.4 -24.2°
Maximum altitude 21:02:18 17° 322° (NW) 1,524 5.5 -24.7°
Drops below altitude 10° 21:05:05 10° 2° (N) 1,912 5.6 -25.2°
Enters shadow 21:07:44 - 22° (NNE) 2,702 6.2 -25.7°
